Location: Lombray
(49.5154°N, 3.1089°E)
Time: 20:46:04
(UTC+00:00)

Helios 1A Rocket - Pass Details

Date: 15 May 2026
Orbit: 400 x 409 km, 98.3° (Epoch: 8 June)

Event Time Altitude Azimuth Distance (km) Brightness Sun altitude
Rises 20:05:33 0° 14° (NNE) 2,342 6.4 -6.2°
Reaches altitude 10° 20:07:33 10° 15° (NNE) 1,473 5.4 -6.4°
Maximum altitude 20:10:41 86° 106° (ESE) 411 2.1 -6.8°
Drops below altitude 10° 20:13:47 10° 194° (SSW) 1,452 4.7 -7.2°
Sets 20:15:44 0° 195° (SSW) 2,304 5.7 -7.4°
